Location: Rounton
(54.4000°N, 1.3500°W)
Time: 13:11:39
(UTC+00:00)

Transit 2A Rocket - Pass Details

Date: 03 December 2021
Orbit: 584 x 918 km, 66.7° (Epoch: 17 January)

Event Time Altitude Azimuth Distance (km) Brightness Sun altitude
Rises 12:13:58 0° 291° (WNW) 3,512 8.2 13.3°
Reaches altitude 10° 12:16:55 10° 305° (NW) 2,599 7.5 13.3°
Maximum altitude 12:21:56 26° 360° (N) 1,741 6.4 13.2°
Drops below altitude 10° 12:26:59 10° 55° (NE) 2,611 7.4 13.1°
Sets 12:29:57 0° 68° (ENE) 3,532 8.1 13.1°
